SCP
0 0 0 0 0 0 0 0 0 0 0 0 0 0 0 0 0 0 0 0 0 0 0 0 0 0 0 0 -0 -0 -0 0 0 0 0 0 0 0 0 0 0 0 0 0 0 0 0
0 0 0 0 0 0 0 0 0 0 0 0 0 0 0 0 0 0 0 0 0 0 0 0 0 0 0 0 0 0 -0 0 0 0 0 0 0 0 0 0 0 0 0 0 0 0 0
0 0 0 0 0 0 0 0 0 0 0 0 0 0 0 0 0 0 0 0 0 0 0 0 0 0 0 -0 0 0 -0 -0 0 0 0 0 0 0 0 0 0 0 0 0 0 0 0
0 0 0 0 -0 -0 0 0 0 0 0 0 0 0 0 0 0 0 0 0 0 0 0 0 0 0 0 0 0 0 0 0 0 -0 -0 -0 0 0 0 0 0 0 0 0 0 0 0
0 0 0 0 0 0 0 0 0 0 0 0 0 0 0 0 0 0 0 0 0 0 0 0 0 0 0 0 0 0 0 0 0 0 0 0 0 0 0 0 0 0 -0 0 0 0 0
0 0 0 0 0 0 0 0 0 0 0 0 0 0 0 0 0 0 0 0 0 0 0 0 0 0 0 0 0 0 0 0 0 0 0 0 0 0 0 0 0 0 0 0 0 0 0
0 0 0 0 0 0 0 0 0 0 0 0 0 0 0 0 0 0 0 0 0 0 0 0 0 0 0 0 0 0 0 0 0 0 0 0 0 0 0 0 0 0 0 0 0 0 0
0 0 0 0 0 0 0 0 0 0 0 0 0 0 0 0 0 0 0 0 0 0 0 0 0 0 -0 0 0 0 0 0 0 0 0 0 0 0 0 0 0 0 0 0 0 0 0
0 0 0 0 0 0 0 0 0 0 0 0 0 0 0 0 0 0 0 0 0 0 0 -0 0 0 0 0 0 0 0 0 0 0 0 0 0 0 0 0 0 0 0 0 0 0 0
0 0 0 0 0 0 0 0 0 0 0 0 0 0 0 0 0 0 0 0 0 0 0 0 0 0 0 0 0 0 0 0 0 0 0 0 0 0 0 0 0 0 0 0 0 0 0
0 0 0 0 0 0 0 0 0 0 0 0 0 0 0 0 0 0 0 0 0 0 0 0 0 0 0 0 0 0 0 0 0 0 0 0 0 0 0 0 0 0 0 0 0 0 0
0 0 0 0 0 0 0 0 0 0 0 0 0 0 0 0 0 0 0 0 0 0 0 0 0 0 0 0 0 0 0 0 0 0 0 0 0 0 0 0 0 0 0 0 0 0 0
-0 -0 -0 -0 -0 -0 -0 0 0 0 0 0 0 0 0 0 0 0 0 0 0 0 0 0 0 0 0 0 0 0 0 0 0 0 0 0 0 0 0 0 0 0 0 0 0 0 0
-0 -0 -0 -0 -0 -0 -0 -0 -0 0 0 0 0 0 0 0 0 0 0 0 0 0 0 0 0 0 0 0 0 0 0 0 0 0 0 0 0 0 0 0 0 0 0 0 0 0 0
0 -0 -0 -0 0 -0 -0 -0 -0 -0 0 0 0 0 0 0 0 0 0 0 0 0 0 0 0 0 0 0 0 0 0 0 0 0 0 0 0 0 0 0 0 0 0 0 0 0 0
0 0 0 0 0 0 0 0 0 0 0 0 0 0 0 0 0 0 0 0 0 0 0 0 0 0 0 0 0 0 0 0 0 0 0 0 0 0 0 0 0 0 0 0 0 0 0
0 0 0 0 0 0 0 0 0 0 0 0 0 0 0 0 0 0 0 0 0 0 0 0 0 0 0 0 0 0 0 0 0 0 0 0 0 0 0 0 0 0 0 0 0 0 0
0 0 0 0 0 0 0 0 0 0 0 0 0 0 0 0 0 0 0 0 0 0 0 0 0 0 0 0 0 0 0 0 0 0 0 0 0 0 0 0 0 0 0 0 0 0 0
0 0 0 0 0 0 0 0 0 0 0 0 0 0 0 0 0 0 0 0 0 0 0 0 0 0 0 0 0 0 0 0 0 0 0 0 0 0 0 0 0 0 0 0 0 0 0
0 -0 0 0 0 0 0 0 0 0 0 0 0 0 0 0 0 0 0 0 0 0 0 0 0 0 0 0 0 0 0 0 0 0 0 0 0 0 0 0 0 0 0 0 0 0 0
0 -0 0 0 0 0 0 0 0 -0 0 0 0 0 0 0 0 0 0 0 0 0 0 0 0 0 0 0 0 0 0 0 0 0 0 0 0 0 0 0 0 0 0 0 0 0 0
0 0 0 0 0 0 0 0 0 -0 0 0 0 0 0 0 0 0 0 0 0 0 0 0 0 0 0 0 0 0 0 0 0 0 0 0 0 0 0 0 0 0 0 0 0 0 0
-0 0 0 0 0 0 0 0 -0 -0 0 0 0 0 0 -0 0 0 0 0 0 0 0 0 0 0 0 0 0 0 0 0 0 0 0 0 0 0 0 0 0 -0 0 0 0 0 0
0 -0 0 0 0 0 0 -0 -0 -0 0 0 0 0 0 -0 -0 0 0 0 0 0 0 0 0 0 0 0 0 0 0 0 0 0 0 0 0 0 0 0 0 0 0 0 0 0 0
0 0 0 0 0 0 0 0 0 -0 0 0 0 0 0 -0 0 0 0 0 0 0 0 0 0 0 0 0 0 0 0 0 0 0 0 0 0 0 0 0 0 0 0 0 0 0 0
0 0 0 0 0 0 0 0 0 -0 -0 0 0 0 -0 -0 0 0 0 0 0 0 0 0 0 0 0 0 0 0 0 0 0 0 0 0 0 0 0 0 0 0 0 0 0 0 0
0 0 -0 0 0 0 0 0 0 -0 -0 0 0 0 -0 -0 0 0 0 0 0 0 0 0 0 0 0 0 0 0 0 0 0 0 0 0 0 0 0 0 0 0 0 0 0 0 0
0 0 0 0 0 -0 -0 0 0 -0 -0 0 0 0 0 0 -0 0 0 0 0 0 0 0 0 0 0 0 0 0 0 0 0 0 0 0 0 0 0 0 0 0 0 0 0 0 0
0 0 0 -0 0 0 0 0 0 -0 -0 0 0 0 0 0 0 0 0 0 0 0 0 0 0 0 0 0 0 0 0 0 0 0 0 0 0 0 0 0 0 0 0 0 0 0 0
Wind_Speed_500mb
38 39 40 41 42 45 49 50 50 50 47 46 45 43 42 40 40 39 38 37 37 35 34 33 35 30 29 24 57 19 11 13 22 49 51 47 38 17 9 11 11 11 10 6 15 22 25
44 45 46 46 46 45 46 47 49 50 49 49 49 49 47 45 42 43 42 40 39 37 35 35 35 31 29 23 48 42 61 58 29 43 54 50 44 48 14 14 13 14 12 3 5 8 13
50 52 51 51 51 52 53 52 50 49 49 50 50 49 49 48 47 46 45 44 41 40 38 37 36 35 40 67 29 19 21 44 40 26 56 55 48 26 15 10 10 4 5 10 4 8 6
48 51 53 54 55 56 56 55 54 53 52 51 50 49 50 51 51 51 48 44 42 41 41 39 37 35 33 42 33 50 52 26 27 34 40 49 40 40 21 15 7 7 9 5 9 9 7
56 51 51 53 56 56 57 56 54 55 56 57 54 50 49 50 51 52 50 43 40 42 39 35 29 23 26 25 37 41 44 48 24 25 27 26 14 18 6 5 6 13 6 7 11 19 5
52 60 65 63 59 56 58 58 54 52 53 53 53 52 50 49 48 49 47 40 34 35 26 15 17 9 36 19 20 32 33 40 32 25 21 17 11 6 5 5 10 8 6 6 8 6 7
52 57 58 56 62 66 60 58 59 59 54 51 51 51 48 46 43 40 38 23 14 9 20 22 13 18 8 4 11 15 25 38 28 22 13 15 8 15 18 13 10 8 5 10 8 10 9
56 58 60 60 65 58 65 67 62 59 59 59 51 44 44 45 41 32 26 9 6 7 24 35 60 60 57 51 21 21 29 32 21 12 14 8 23 14 14 8 8 6 6 10 11 5 11
54 58 60 60 61 63 62 62 71 67 60 59 52 46 45 44 40 30 20 15 14 19 12 22 51 64 78 48 35 49 24 28 11 14 14 17 8 15 14 10 9 10 7 9 14 3 6
62 58 55 57 60 58 59 63 64 65 69 63 54 48 43 39 25 23 16 15 17 11 7 14 17 28 51 40 16 58 43 33 5 26 17 14 12 16 10 9 15 8 15 11 9 4 9
64 65 68 66 59 59 58 56 60 59 56 66 57 46 42 34 17 7 9 18 14 11 10 13 15 10 37 46 33 28 54 34 20 14 14 20 16 12 11 19 14 19 7 11 7 8 4
68 69 67 64 68 71 65 63 54 53 56 52 55 47 44 41 31 30 19 4 15 7 21 11 13 17 14 19 30 25 38 32 27 13 5 21 19 20 24 16 18 7 6 11 8 7 2
70 71 72 72 67 67 72 65 63 57 55 52 54 51 50 44 25 19 20 10 5 14 4 13 14 13 22 12 15 19 25 24 22 16 21 8 11 8 12 10 6 9 11 7 8 5 11
73 76 76 75 74 68 64 72 65 58 54 51 53 52 53 51 34 27 10 5 18 19 22 6 10 12 19 16 20 17 16 27 24 14 11 19 18 20 8 17 19 14 17 11 12 5 11
76 80 80 82 80 73 63 63 69 60 54 51 48 51 59 56 40 23 15 15 26 14 28 7 5 9 10 14 14 18 34 31 25 25 34 17 17 5 14 10 21 11 9 12 9 2 4
82 83 84 80 75 80 66 60 59 59 50 47 51 53 57 52 44 26 5 50 16 13 11 47 16 11 19 14 18 31 28 33 25 17 13 13 6 11 14 10 1 17 13 4 4 4 8
86 85 75 75 76 71 70 60 54 55 48 43 44 23 29 60 51 32 17 30 44 22 8 30 42 13 14 16 19 16 14 18 42 19 22 12 12 8 12 14 18 6 6 9 9 9 10
87 92 82 78 72 60 53 58 50 51 42 43 45 10 23 74 17 14 33 20 17 48 18 7 4 16 15 13 18 23 24 25 38 29 27 15 13 12 16 5 9 15 21 18 10 9 5
86 87 85 73 61 53 48 51 41 43 37 46 17 15 33 79 21 25 30 24 30 27 26 6 5 6 9 13 8 10 11 12 27 34 22 16 6 6 10 7 3 9 9 9 10 8 14
90 95 85 69 58 46 26 34 34 36 42 50 12 9 17 44 30 30 35 35 19 49 27 2 6 9 3 9 6 8 4 6 6 9 32 36 12 20 32 13 12 9 9 12 14 9 11
98 97 75 59 54 33 23 27 32 35 38 49 16 5 4 9 15 22 14 6 42 16 28 6 6 8 7 9 7 9 4 5 9 6 8 13 16 12 9 19 21 27 17 24 19 18 17
90 81 66 66 47 21 20 24 30 31 34 47 15 5 5 6 41 31 16 7 37 41 10 34 10 8 4 6 7 7 6 5 5 15 7 4 7 16 14 19 25 23 35 32 35 6 2
78 72 68 59 42 21 15 22 32 29 41 19 19 22 9 1 10 19 25 27 8 6 3 18 11 7 6 5 14 20 24 20 8 2 4 2 7 7 9 11 13 34 32 28 20 10 19
79 67 62 48 42 33 24 22 28 34 42 36 9 5 4 6 5 11 13 30 27 9 5 4 21 11 2 10 8 8 10 15 15 11 16 3 7 4 6 11 18 10 21 33 39 24 15
66 68 61 45 39 31 30 11 19 27 34 36 28 9 3 5 11 11 5 21 33 43 16 6 11 1 2 5 4 3 4 2 14 14 13 16 9 5 10 8 9 3 10 18 18 25 29
64 72 57 45 33 28 18 5 5 17 21 28 20 16 4 4 7 16 11 7 6 7 6 10 26 22 8 4 4 13 11 10 11 10 6 11 9 10 6 13 21 11 12 12 11 16 20
58 65 69 40 33 29 23 4 6 14 24 22 22 23 6 4 13 16 6 1 7 7 6 3 4 8 29 6 5 6 13 5 14 23 13 9 5 25 4 9 12 10 17 33 17 15 24
58 61 55 55 44 21 15 7 3 11 20 31 23 18 15 6 11 14 9 1 2 5 6 6 3 4 1 11 9 8 8 19 11 12 18 16 15 11 4 7 17 14 14 24 15 20 25
56 55 57 50 54 24 9 11 3 9 19 25 10 22 21 16 9 15 19 15 12 4 3 3 2 3 7 6 6 7 6 2 21 26 5 19 13 15 19 12 7 54 39 60 42 34 31
Wind_Direction_500mb
289 288 286 283 280 280 280 281 283 284 285 286 287 286 287 287 286 286 285 284 285 289 292 294 293 294 289 265 247 234 221 1 213 208 221 227 228 221 221 227 166 193 261 308 247 191 204
293 292 289 287 286 284 281 280 279 278 279 281 283 285 288 288 286 284 284 285 286 287 285 286 286 287 273 255 269 252 254 262 273 214 219 223 231 242 255 224 174 225 218 64 153 190 209
303 297 296 294 287 281 281 282 283 284 284 282 279 279 281 283 284 284 284 286 289 288 283 281 280 278 261 252 253 275 276 253 254 243 221 231 232 189 226 276 274 97 105 36 263 167 243
298 299 300 297 294 290 287 284 282 282 282 281 281 282 280 279 280 281 283 284 288 287 282 280 277 270 250 276 260 250 250 225 233 234 232 237 242 240 256 265 62 88 53 96 279 161 249
284 290 295 295 294 295 297 292 286 284 286 286 285 284 282 280 281 281 282 285 290 290 286 278 263 238 263 259 247 249 243 241 229 233 227 221 215 231 241 193 38 14 221 209 310 207 135
308 289 288 285 285 289 291 293 295 288 283 284 285 283 283 284 283 284 285 288 291 290 279 236 212 228 250 243 270 263 217 226 231 243 206 204 188 169 68 105 209 233 227 228 242 241 186
309 305 301 300 287 279 283 288 288 293 293 290 290 288 287 286 285 288 292 303 283 229 229 211 213 216 195 110 228 242 226 195 173 170 157 167 142 203 202 199 183 195 196 247 266 242 178
312 306 303 299 295 293 279 276 281 282 286 292 300 312 298 291 289 292 292 298 86 327 294 253 246 252 245 264 300 261 209 165 169 164 113 83 219 188 197 164 173 160 222 264 274 278 163
308 310 312 304 300 293 288 287 276 278 279 281 287 295 303 294 290 288 271 237 234 326 267 263 241 239 240 245 237 253 214 186 138 149 165 185 182 163 169 196 174 198 174 233 239 319 239
299 295 296 299 302 300 293 286 284 281 272 276 281 286 296 303 287 268 240 211 225 282 292 270 204 244 210 212 234 243 231 196 143 188 167 208 191 172 168 196 166 254 217 229 267 47 271
322 315 301 290 291 290 291 290 289 282 280 264 272 274 287 299 254 254 192 193 173 162 288 246 199 220 198 176 159 210 214 205 162 172 142 213 155 176 173 211 163 232 143 196 228 205 109
324 318 316 309 289 287 290 285 286 279 277 277 263 266 270 279 274 248 239 149 156 74 243 269 191 175 120 198 185 165 174 194 205 154 238 202 206 166 197 213 175 166 107 49 55 97 60
332 328 324 316 304 289 277 281 283 278 274 269 260 258 260 266 268 241 233 195 127 206 217 216 202 161 176 160 193 161 167 178 180 159 199 168 186 191 151 152 89 96 71 338 338 6 223
327 326 320 316 312 300 287 270 276 276 273 268 261 253 249 254 258 237 201 97 218 217 202 289 165 145 179 150 208 184 154 186 209 156 161 180 227 170 178 170 183 181 155 158 230 231 260
328 320 314 310 303 300 292 277 266 273 270 266 257 251 245 237 243 228 185 198 223 172 195 231 106 135 201 191 159 172 212 203 185 184 202 174 227 138 166 156 148 177 153 197 138 154 62
332 326 317 311 301 292 285 281 266 262 267 259 253 253 241 223 221 195 140 225 219 186 146 202 198 168 186 185 173 191 181 210 205 172 140 194 182 207 199 100 19 166 160 112 18 194 228
338 330 326 319 310 291 275 274 262 254 257 252 238 239 241 223 197 173 210 225 222 284 313 185 218 193 215 178 181 194 226 218 192 169 173 134 135 269 110 178 169 124 162 58 124 148 187
341 341 327 323 318 302 270 264 256 246 247 247 236 217 199 195 186 196 228 215 292 228 256 287 218 198 196 185 184 200 205 199 185 163 173 185 152 193 199 198 172 208 189 171 163 229 208
339 334 335 326 317 308 276 256 249 240 231 236 231 207 202 196 198 214 234 258 254 251 242 307 279 217 195 193 197 177 168 217 171 179 159 170 199 149 328 5 329 168 178 148 120 95 189
339 337 332 327 325 313 273 247 238 234 229 221 175 191 160 219 217 212 223 234 261 240 278 99 313 310 141 168 218 153 151 69 78 127 176 160 158 189 221 209 158 183 179 183 156 141 185
345 341 336 332 327 303 277 245 229 223 226 215 202 240 195 175 203 222 183 272 216 244 219 153 223 248 207 176 101 126 190 10 90 248 110 142 205 182 198 202 191 212 196 180 191 195 175
351 355 351 345 338 305 270 240 230 232 223 210 180 170 184 279 213 221 221 207 235 215 247 227 244 190 3 61 53 101 66 80 72 16 90 7 222 175 217 207 195 215 217 194 208 152 107
352 351 354 354 358 338 306 251 228 227 207 193 226 235 332 62 226 208 215 214 242 229 246 218 146 240 46 226 272 273 261 267 256 18 359 335 136 103 227 182 127 245 208 193 204 190 171
357 350 356 353 352 351 309 264 228 217 212 208 117 135 182 274 215 225 227 200 230 178 219 78 196 152 179 328 302 265 257 240 259 245 182 216 108 104 158 112 208 278 203 187 199 204 194
354 356 356 352 347 356 10 2 186 202 209 218 227 223 71 287 283 196 293 195 201 222 207 218 270 33 325 313 62 325 23 155 245 249 220 180 138 168 152 211 299 234 153 145 159 227 198
357 1 356 1 357 354 358 25 218 200 203 213 227 246 219 249 262 305 151 119 149 145 134 204 238 234 258 174 142 187 194 182 173 199 94 141 198 170 175 178 219 191 199 150 76 246 196
352 359 6 357 345 345 1 316 264 211 198 204 213 207 237 226 301 9 54 299 167 127 144 228 266 185 202 182 132 181 219 205 207 172 170 145 135 209 174 228 275 248 149 137 154 233 185
359 1 5 6 356 350 352 357 204 203 201 199 218 222 227 284 266 294 285 304 124 103 144 174 56 258 126 180 177 214 214 210 260 216 172 162 151 190 123 190 245 170 133 161 197 217 215
0 2 6 7 9 6 21 46 18 240 197 197 221 205 234 262 285 251 241 237 260 217 219 216 197 218 236 176 198 177 282 270 202 235 232 193 184 186 189 203 227 172 174 198 186 195 196
Wind_Speed_850mb
38 39 40 41 42 45 49 50 50 50 47 46 45 43 42 40 40 39 38 37 37 35 34 33 35 30 29 24 57 19 11 13 22 49 51 47 38 17 9 11 11 11 10 6 15 22 25
44 45 46 46 46 45 46 47 49 50 49 49 49 49 47 45 42 43 42 40 39 37 35 35 35 31 29 23 48 42 61 58 29 43 54 50 44 48 14 14 13 14 12 3 5 8 13
50 52 51 51 51 52 53 52 50 49 49 50 50 49 49 48 47 46 45 44 41 40 38 37 36 35 40 67 29 19 21 44 40 26 56 55 48 26 15 10 10 4 5 10 4 8 6
48 51 53 54 55 56 56 55 54 53 52 51 50 49 50 51 51 51 48 44 42 41 41 39 37 35 33 42 33 50 52 26 27 34 40 49 40 40 21 15 7 7 9 5 9 9 7
56 51 51 53 56 56 57 56 54 55 56 57 54 50 49 50 51 52 50 43 40 42 39 35 29 23 26 25 37 41 44 48 24 25 27 26 14 18 6 5 6 13 6 7 11 19 5
52 60 65 63 59 56 58 58 54 52 53 53 53 52 50 49 48 49 47 40 34 35 26 15 17 9 36 19 20 32 33 40 32 25 21 17 11 6 5 5 10 8 6 6 8 6 7
52 57 58 56 62 66 60 58 59 59 54 51 51 51 48 46 43 40 38 23 14 9 20 22 13 18 8 4 11 15 25 38 28 22 13 15 8 15 18 13 10 8 5 10 8 10 9
56 58 60 60 65 58 65 67 62 59 59 59 51 44 44 45 41 32 26 9 6 7 24 35 60 60 57 51 21 21 29 32 21 12 14 8 23 14 14 8 8 6 6 10 11 5 11
54 58 60 60 61 63 62 62 71 67 60 59 52 46 45 44 40 30 20 15 14 19 12 22 51 64 78 48 35 49 24 28 11 14 14 17 8 15 14 10 9 10 7 9 14 3 6
62 58 55 57 60 58 59 63 64 65 69 63 54 48 43 39 25 23 16 15 17 11 7 14 17 28 51 40 16 58 43 33 5 26 17 14 12 16 10 9 15 8 15 11 9 4 9
64 65 68 66 59 59 58 56 60 59 56 66 57 46 42 34 17 7 9 18 14 11 10 13 15 10 37 46 33 28 54 34 20 14 14 20 16 12 11 19 14 19 7 11 7 8 4
68 69 67 64 68 71 65 63 54 53 56 52 55 47 44 41 31 30 19 4 15 7 21 11 13 17 14 19 30 25 38 32 27 13 5 21 19 20 24 16 18 7 6 11 8 7 2
70 71 72 72 67 67 72 65 63 57 55 52 54 51 50 44 25 19 20 10 5 14 4 13 14 13 22 12 15 19 25 24 22 16 21 8 11 8 12 10 6 9 11 7 8 5 11
73 76 76 75 74 68 64 72 65 58 54 51 53 52 53 51 34 27 10 5 18 19 22 6 10 12 19 16 20 17 16 27 24 14 11 19 18 20 8 17 19 14 17 11 12 5 11
76 80 80 82 80 73 63 63 69 60 54 51 48 51 59 56 40 23 15 15 26 14 28 7 5 9 10 14 14 18 34 31 25 25 34 17 17 5 14 10 21 11 9 12 9 2 4
82 83 84 80 75 80 66 60 59 59 50 47 51 53 57 52 44 26 5 50 16 13 11 47 16 11 19 14 18 31 28 33 25 17 13 13 6 11 14 10 1 17 13 4 4 4 8
86 85 75 75 76 71 70 60 54 55 48 43 44 23 29 60 51 32 17 30 44 22 8 30 42 13 14 16 19 16 14 18 42 19 22 12 12 8 12 14 18 6 6 9 9 9 10
87 92 82 78 72 60 53 58 50 51 42 43 45 10 23 74 17 14 33 20 17 48 18 7 4 16 15 13 18 23 24 25 38 29 27 15 13 12 16 5 9 15 21 18 10 9 5
86 87 85 73 61 53 48 51 41 43 37 46 17 15 33 79 21 25 30 24 30 27 26 6 5 6 9 13 8 10 11 12 27 34 22 16 6 6 10 7 3 9 9 9 10 8 14
90 95 85 69 58 46 26 34 34 36 42 50 12 9 17 44 30 30 35 35 19 49 27 2 6 9 3 9 6 8 4 6 6 9 32 36 12 20 32 13 12 9 9 12 14 9 11
98 97 75 59 54 33 23 27 32 35 38 49 16 5 4 9 15 22 14 6 42 16 28 6 6 8 7 9 7 9 4 5 9 6 8 13 16 12 9 19 21 27 17 24 19 18 17
90 81 66 66 47 21 20 24 30 31 34 47 15 5 5 6 41 31 16 7 37 41 10 34 10 8 4 6 7 7 6 5 5 15 7 4 7 16 14 19 25 23 35 32 35 6 2
78 72 68 59 42 21 15 22 32 29 41 19 19 22 9 1 10 19 25 27 8 6 3 18 11 7 6 5 14 20 24 20 8 2 4 2 7 7 9 11 13 34 32 28 20 10 19
79 67 62 48 42 33 24 22 28 34 42 36 9 5 4 6 5 11 13 30 27 9 5 4 21 11 2 10 8 8 10 15 15 11 16 3 7 4 6 11 18 10 21 33 39 24 15
66 68 61 45 39 31 30 11 19 27 34 36 28 9 3 5 11 11 5 21 33 43 16 6 11 1 2 5 4 3 4 2 14 14 13 16 9 5 10 8 9 3 10 18 18 25 29
64 72 57 45 33 28 18 5 5 17 21 28 20 16 4 4 7 16 11 7 6 7 6 10 26 22 8 4 4 13 11 10 11 10 6 11 9 10 6 13 21 11 12 12 11 16 20
58 65 69 40 33 29 23 4 6 14 24 22 22 23 6 4 13 16 6 1 7 7 6 3 4 8 29 6 5 6 13 5 14 23 13 9 5 25 4 9 12 10 17 33 17 15 24
58 61 55 55 44 21 15 7 3 11 20 31 23 18 15 6 11 14 9 1 2 5 6 6 3 4 1 11 9 8 8 19 11 12 18 16 15 11 4 7 17 14 14 24 15 20 25
56 55 57 50 54 24 9 11 3 9 19 25 10 22 21 16 9 15 19 15 12 4 3 3 2 3 7 6 6 7 6 2 21 26 5 19 13 15 19 12 7 54 39 60 42 34 31
Wind_Direction_850mb
289 288 286 283 280 280 280 281 283 284 285 286 287 286 287 287 286 286 285 284 285 289 292 294 293 294 289 265 247 234 221 1 213 208 221 227 228 221 221 227 166 193 261 308 247 191 204
293 292 289 287 286 284 281 280 279 278 279 281 283 285 288 288 286 284 284 285 286 287 285 286 286 287 273 255 269 252 254 262 273 214 219 223 231 242 255 224 174 225 218 64 153 190 209
303 297 296 294 287 281 281 282 283 284 284 282 279 279 281 283 284 284 284 286 289 288 283 281 280 278 261 252 253 275 276 253 254 243 221 231 232 189 226 276 274 97 105 36 263 167 243
298 299 300 297 294 290 287 284 282 282 282 281 281 282 280 279 280 281 283 284 288 287 282 280 277 270 250 276 260 250 250 225 233 234 232 237 242 240 256 265 62 88 53 96 279 161 249
284 290 295 295 294 295 297 292 286 284 286 286 285 284 282 280 281 281 282 285 290 290 286 278 263 238 263 259 247 249 243 241 229 233 227 221 215 231 241 193 38 14 221 209 310 207 135
308 289 288 285 285 289 291 293 295 288 283 284 285 283 283 284 283 284 285 288 291 290 279 236 212 228 250 243 270 263 217 226 231 243 206 204 188 169 68 105 209 233 227 228 242 241 186
309 305 301 300 287 279 283 288 288 293 293 290 290 288 287 286 285 288 292 303 283 229 229 211 213 216 195 110 228 242 226 195 173 170 157 167 142 203 202 199 183 195 196 247 266 242 178
312 306 303 299 295 293 279 276 281 282 286 292 300 312 298 291 289 292 292 298 86 327 294 253 246 252 245 264 300 261 209 165 169 164 113 83 219 188 197 164 173 160 222 264 274 278 163
308 310 312 304 300 293 288 287 276 278 279 281 287 295 303 294 290 288 271 237 234 326 267 263 241 239 240 245 237 253 214 186 138 149 165 185 182 163 169 196 174 198 174 233 239 319 239
299 295 296 299 302 300 293 286 284 281 272 276 281 286 296 303 287 268 240 211 225 282 292 270 204 244 210 212 234 243 231 196 143 188 167 208 191 172 168 196 166 254 217 229 267 47 271
322 315 301 290 291 290 291 290 289 282 280 264 272 274 287 299 254 254 192 193 173 162 288 246 199 220 198 176 159 210 214 205 162 172 142 213 155 176 173 211 163 232 143 196 228 205 109
324 318 316 309 289 287 290 285 286 279 277 277 263 266 270 279 274 248 239 149 156 74 243 269 191 175 120 198 185 165 174 194 205 154 238 202 206 166 197 213 175 166 107 49 55 97 60
332 328 324 316 304 289 277 281 283 278 274 269 260 258 260 266 268 241 233 195 127 206 217 216 202 161 176 160 193 161 167 178 180 159 199 168 186 191 151 152 89 96 71 338 338 6 223
327 326 320 316 312 300 287 270 276 276 273 268 261 253 249 254 258 237 201 97 218 217 202 289 165 145 179 150 208 184 154 186 209 156 161 180 227 170 178 170 183 181 155 158 230 231 260
328 320 314 310 303 300 292 277 266 273 270 266 257 251 245 237 243 228 185 198 223 172 195 231 106 135 201 191 159 172 212 203 185 184 202 174 227 138 166 156 148 177 153 197 138 154 62
332 326 317 311 301 292 285 281 266 262 267 259 253 253 241 223 221 195 140 225 219 186 146 202 198 168 186 185 173 191 181 210 205 172 140 194 182 207 199 100 19 166 160 112 18 194 228
338 330 326 319 310 291 275 274 262 254 257 252 238 239 241 223 197 173 210 225 222 284 313 185 218 193 215 178 181 194 226 218 192 169 173 134 135 269 110 178 169 124 162 58 124 148 187
341 341 327 323 318 302 270 264 256 246 247 247 236 217 199 195 186 196 228 215 292 228 256 287 218 198 196 185 184 200 205 199 185 163 173 185 152 193 199 198 172 208 189 171 163 229 208
339 334 335 326 317 308 276 256 249 240 231 236 231 207 202 196 198 214 234 258 254 251 242 307 279 217 195 193 197 177 168 217 171 179 159 170 199 149 328 5 329 168 178 148 120 95 189
339 337 332 327 325 313 273 247 238 234 229 221 175 191 160 219 217 212 223 234 261 240 278 99 313 310 141 168 218 153 151 69 78 127 176 160 158 189 221 209 158 183 179 183 156 141 185
345 341 336 332 327 303 277 245 229 223 226 215 202 240 195 175 203 222 183 272 216 244 219 153 223 248 207 176 101 126 190 10 90 248 110 142 205 182 198 202 191 212 196 180 191 195 175
351 355 351 345 338 305 270 240 230 232 223 210 180 170 184 279 213 221 221 207 235 215 247 227 244 190 3 61 53 101 66 80 72 16 90 7 222 175 217 207 195 215 217 194 208 152 107
352 351 354 354 358 338 306 251 228 227 207 193 226 235 332 62 226 208 215 214 242 229 246 218 146 240 46 226 272 273 261 267 256 18 359 335 136 103 227 182 127 245 208 193 204 190 171
357 350 356 353 352 351 309 264 228 217 212 208 117 135 182 274 215 225 227 200 230 178 219 78 196 152 179 328 302 265 257 240 259 245 182 216 108 104 158 112 208 278 203 187 199 204 194
354 356 356 352 347 356 10 2 186 202 209 218 227 223 71 287 283 196 293 195 201 222 207 218 270 33 325 313 62 325 23 155 245 249 220 180 138 168 152 211 299 234 153 145 159 227 198
357 1 356 1 357 354 358 25 218 200 203 213 227 246 219 249 262 305 151 119 149 145 134 204 238 234 258 174 142 187 194 182 173 199 94 141 198 170 175 178 219 191 199 150 76 246 196
352 359 6 357 345 345 1 316 264 211 198 204 213 207 237 226 301 9 54 299 167 127 144 228 266 185 202 182 132 181 219 205 207 172 170 145 135 209 174 228 275 248 149 137 154 233 185
359 1 5 6 356 350 352 357 204 203 201 199 218 222 227 284 266 294 285 304 124 103 144 174 56 258 126 180 177 214 214 210 260 216 172 162 151 190 123 190 245 170 133 161 197 217 215
0 2 6 7 9 6 21 46 18 240 197 197 221 205 234 262 285 251 241 237 260 217 219 216 197 218 236 176 198 177 282 270 202 235 232 193 184 186 189 203 227 172 174 198 186 195 196